Regional Weather Roundup
Issued by NWS State College, PA

Home | Current Version | Previous Version | Text Only | Print | Product List | Glossary On
Versions: 1 2 3 4 5 6 7 8 9 10 11 12 13 14 15 16 17 18 19 20 21 22 23 24 25 26 27 28 29 30 31 32 33 34 35 36 37 38 39 40 41 42 43 44 45 46 47 48 49 50
000
ASUS41 KCTP 310703
RWRCTP

REGIONAL WEATHER ROUNDUP
NATIONAL WEATHER SERVICE STATE COLLEGE PA
300 AM EDT TUE MAY 31 2016

Note: "fair" indicates few or no clouds below 12,000 feet with no
significant weather and/or obstructions to visibility.

* = STATION THAT DOES NOT REPORT PRECIPITATION /E.G. RAIN...SNOW...ETC/
    THUNDER OR FOG.

PAZ002>004-007>009-013>016-020>023-029>032-310800-
WESTERN PENNSYLVANIA

CITY           SKY/WX    TMP DP  RH WIND       PRES   REMARKS
ERIE           CLEAR     62  55  77 S3        29.96S
MEADVILLE      CLEAR     60  54  80 CALM      30.00S
FRANKLIN*      CLEAR     55  52  88 CALM      30.04R
NEW CASTLE     PTSUNNY   55  54  96 CALM      30.00R
BEAVER COUNTY  NOT AVBL
BUTLER*        PTCLDY   N/A N/A N/A CALM      30.03R
PITTSBURGH INT CLEAR     61  55  81 S3        29.99R
PITTSBURGH     CLEAR     66  57  72 CALM      29.98F
INDIANA*       CLEAR     57  55  94 CALM      30.04S
LATROBE        CLEAR     57  57 100 CALM      30.01R
WASHINGTON CO* CLEAR     55  54  94 CALM      30.00S
$$

PAZ004>006-010>012-017>019-024>028-033>037-041-042-045-046-049>053-310800-
CENTRAL PENNSYLVANIA

CITY           SKY/WX    TMP DP  RH WIND       PRES   REMARKS
BRADFORD       CLEAR     49  47  93 CALM      30.03S
DUBOIS         CLEAR     57  52  83 E5        30.01S
CLEARFIELD     CLEAR     55  51  86 CALM      30.02S
JOHNSTOWN      CLEAR     62  49  62 CALM      30.03S
ALTOONA        CLEAR     61  59  93 CALM      30.00S
STATE COLLEGE  CLEAR     64  61  90 CALM      29.99S
WILLIAMSPORT   PTCLDY    63  59  87 N3        29.96S
SELINSGROVE    FOG       63  63 100 CALM      29.97R VSB 1/4
FT INDIANTOWN  NOT AVBL
CAPITAL CITY   CLOUDY    68  64  87 CALM      29.96R
HARRISBURG     CLOUDY    69  65  86 VRB3      29.95S
YORK           CLOUDY    67  65  93 CALM      29.96S
$$

PAZ038>040-043-044-047-048-054-055-060>062-067>071-310800-
EASTERN PENNSYLVANIA

CITY           SKY/WX    TMP DP  RH WIND       PRES   REMARKS
SCRANTON       CLOUDY    61  60  97 SE3       29.97S FOG
MOUNT POCONO   CLOUDY    59  57  93 NW5       29.99S
ALLENTOWN      PTCLDY    67  63  87 NW3       29.95S
QUAKERTOWN*    CLOUDY    68  68 100 CALM      29.97R
READING        MOCLDY    67  64  90 CALM      29.95S
LANCASTER      PTCLDY    66  65  96 CALM      29.96S
COATESVILLE    CLOUDY    68  68 100 CALM      29.98S
POTTSTOWN      CLOUDY    70  67  90 W3        29.97R
BLUE BELL      CLOUDY    70  66  88 W3        29.94S
DOYLESTOWN     CLOUDY    69  67  93 SW5       29.95R
WILLOW GROVE   NOT AVBL
NORTH PHILA    CLOUDY    73  68  84 W6        29.96S
PHILADELPHIA   CLOUDY    72  67  84 SW6       29.96R
$$




USA.gov is the U.S. government's official web portal to all federal, state and local government web resources and services.